When you browse on this site, cookies collect data to enhance your experience and personalize the content and advertising you see.
Visit our Privacy Policy to learn more. By continuing to use the site, you agree to this use of cookies and data.
  • In Czech Republic
  • List of Countries
  • For 7 days
  • Water Temperature
  • Weather Map
  • Weather Widgets
  • user-avatar
    Login

    Hourly Weather Perth

    Today, 6 April, Monday

    Time Temperature Precipitation Wind Pressure Humidity
    00:00 +21°C° 0 mm 5 mps 760 mmHg 44%
    01:00 +21°C° 0 mm 5 mps 759 mmHg 43%
    02:00 +22°C° 0 mm 5 mps 759 mmHg 43%
    03:00 +22°C° 0 mm 6 mps 759 mmHg 43%
    04:00 +22°C° 0 mm 6 mps 759 mmHg 43%
    05:00 +22°C° 0 mm 6 mps 759 mmHg 43%
    06:00 +22°C° 0 mm 6 mps 759 mmHg 42%
    07:00 +22°C° 0 mm 7 mps 759 mmHg 42%
    08:00 +23°C° 0 mm 7 mps 759 mmHg 37%
    09:00 +24°C° 0 mm 7 mps 759 mmHg 34%
    10:00 +27°C° 0 mm 7 mps 759 mmHg 31%
    11:00 +28°C° 0 mm 7 mps 759 mmHg 28%
    12:00 +29°C° 0 mm 6 mps 758 mmHg 27%
    13:00 +30°C° 0 mm 6 mps 757 mmHg 27%
    14:00 +32°C° 0 mm 6 mps 757 mmHg 26%
    15:00 +32°C° 0 mm 5 mps 756 mmHg 27%
    16:00 +32°C° 0 mm 5 mps 756 mmHg 27%
    17:00 +32°C° 0 mm 5 mps 756 mmHg 27%
    18:00 +30°C° 0 mm 6 mps 756 mmHg 28%
    19:00 +29°C° 0 mm 6 mps 757 mmHg 30%
    20:00 +28°C° 0 mm 6 mps 757 mmHg 32%
    21:00 +27°C° 0 mm 6 mps 757 mmHg 34%
    22:00 +27°C° 0 mm 6 mps 757 mmHg 37%
    23:00 +26°C° 0 mm 6 mps 757 mmHg 40%

    Tomorrow, 7 April, Tuesday

    Time Temperature Precipitation Wind Pressure Humidity
    00:00 +26°C° 0 mm 5 mps 757 mmHg 43%
    01:00 +26°C° 0 mm 5 mps 757 mmHg 45%
    02:00 +25°C° 0 mm 5 mps 757 mmHg 48%
    03:00 +25°C° 0 mm 5 mps 757 mmHg 50%
    04:00 +25°C° 0 mm 5 mps 757 mmHg 51%
    05:00 +25°C° 0 mm 5 mps 757 mmHg 52%
    06:00 +24°C° 0 mm 6 mps 758 mmHg 51%
    07:00 +24°C° 0 mm 6 mps 758 mmHg 50%
    08:00 +26°C° 0 mm 6 mps 758 mmHg 49%
    09:00 +27°C° 0 mm 6 mps 758 mmHg 44%
    10:00 +29°C° 0 mm 6 mps 758 mmHg 39%
    11:00 +32°C° 0 mm 6 mps 758 mmHg 34%
    12:00 +32°C° 0 mm 6 mps 757 mmHg 32%
    13:00 +33°C° 0 mm 6 mps 757 mmHg 30%
    14:00 +34°C° 0 mm 6 mps 756 mmHg 29%
    15:00 +34°C° 0 mm 5 mps 756 mmHg 29%
    16:00 +33°C° 0 mm 5 mps 756 mmHg 30%
    17:00 +33°C° 0 mm 5 mps 756 mmHg 30%
    18:00 +32°C° 0 mm 5 mps 756 mmHg 33%
    19:00 +29°C° 0 mm 4 mps 756 mmHg 35%
    20:00 +28°C° 0 mm 4 mps 756 mmHg 38%
    21:00 +28°C° 0 mm 4 mps 756 mmHg 38%
    22:00 +28°C° 0 mm 4 mps 756 mmHg 38%
    23:00 +27°C° 0 mm 5 mps 756 mmHg 38%

    Day after tomorrow, 8 April, Wednesday

    Time Temperature Precipitation Wind Pressure Humidity
    00:00 +27°C° 0 mm 5 mps 756 mmHg 38%
    01:00 +27°C° 0 mm 5 mps 756 mmHg 39%
    02:00 +26°C° 0 mm 5 mps 756 mmHg 39%
    03:00 +26°C° 0 mm 5 mps 756 mmHg 40%
    04:00 +26°C° 0 mm 5 mps 756 mmHg 40%
    05:00 +26°C° 0 mm 6 mps 757 mmHg 40%
    06:00 +26°C° 0 mm 6 mps 757 mmHg 41%
    07:00 +26°C° 0 mm 6 mps 757 mmHg 41%
    08:00 +26°C° 0 mm 6 mps 757 mmHg 41%
    09:00 +28°C° 0 mm 5 mps 757 mmHg 39%
    10:00 +30°C° 0 mm 5 mps 757 mmHg 37%
    11:00 +32°C° 0 mm 4 mps 757 mmHg 34%
    12:00 +33°C° 0 mm 4 mps 757 mmHg 34%
    13:00 +33°C° 0 mm 4 mps 756 mmHg 34%
    14:00 +34°C° 0 mm 4 mps 756 mmHg 34%
    15:00 +33°C° 0 mm 4 mps 756 mmHg 39%
    16:00 +30°C° 0 mm 3 mps 756 mmHg 44%
    17:00 +29°C° 0 mm 3 mps 756 mmHg 49%
    18:00 +28°C° 0 mm 2 mps 756 mmHg 55%
    19:00 +26°C° 0 mm 2 mps 756 mmHg 61%
    20:00 +25°C° 0 mm 1 mps 757 mmHg 67%
    21:00 +24°C° 0 mm 1 mps 757 mmHg 67%
    22:00 +22°C° 0 mm 0 mps 757 mmHg 68%
    23:00 +22°C° 0 mm 0 mps 757 mmHg 68%

    9 April, Thursday

    Time Temperature Precipitation Wind Pressure Humidity
    00:00 +22°C° 0 mm 0 mps 757 mmHg 69%
    01:00 +21°C° 0 mm 0 mps 757 mmHg 69%
    02:00 +21°C° 0 mm 0 mps 757 mmHg 70%
    03:00 +21°C° 0 mm 0 mps 757 mmHg 69%
    04:00 +23°C° 0 mm 1 mps 757 mmHg 69%
    05:00 +22°C° 0 mm 1 mps 757 mmHg 68%
    06:00 +23°C° 0 mm 1 mps 757 mmHg 66%
    07:00 +24°C° 0 mm 1 mps 758 mmHg 63%
    08:00 +23°C° 0 mm 0 mps 758 mmHg 60%
    09:00 +26°C° 0 mm 1 mps 758 mmHg 54%
    10:00 +28°C° 0 mm 1 mps 758 mmHg 48%
    11:00 +30°C° 0 mm 1 mps 758 mmHg 42%
    12:00 +30°C° 0 mm 2 mps 757 mmHg 40%
    13:00 +31°C° 0 mm 2 mps 757 mmHg 39%
    14:00 +32°C° 0 mm 2 mps 756 mmHg 37%
    15:00 +31°C° 0 mm 3 mps 756 mmHg 41%
    16:00 +30°C° 0 mm 3 mps 756 mmHg 45%
    17:00 +29°C° 0 mm 3 mps 757 mmHg 48%
    18:00 +28°C° 0 mm 3 mps 757 mmHg 55%
    19:00 +26°C° 0 mm 3 mps 758 mmHg 61%
    20:00 +24°C° 0 mm 2 mps 758 mmHg 68%
    21:00 +24°C° 0 mm 2 mps 759 mmHg 68%
    22:00 +24°C° 0 mm 2 mps 759 mmHg 69%
    23:00 +23°C° 0 mm 2 mps 759 mmHg 69%

    10 April, Friday

    Time Temperature Precipitation Wind Pressure Humidity
    00:00 +24°C° 0 mm 2 mps 759 mmHg 67%
    01:00 +24°C° 0 mm 1 mps 759 mmHg 65%
    02:00 +24°C° 0 mm 1 mps 759 mmHg 64%
    03:00 +24°C° 0 mm 1 mps 759 mmHg 64%
    04:00 +24°C° 0 mm 1 mps 759 mmHg 64%
    05:00 +24°C° 0 mm 1 mps 759 mmHg 64%
    06:00 +24°C° 0 mm 1 mps 759 mmHg 61%
    07:00 +25°C° 0 mm 1 mps 759 mmHg 58%
    08:00 +26°C° 0 mm 1 mps 759 mmHg 55%
    09:00 +28°C° 0 mm 1 mps 759 mmHg 48%
    10:00 +31°C° 0 mm 2 mps 759 mmHg 41%
    11:00 +35°C° 0 mm 2 mps 759 mmHg 34%
    12:00 +36°C° 0 mm 2 mps 758 mmHg 32%
    13:00 +37°C° 0 mm 3 mps 757 mmHg 29%
    14:00 +38°C° 0 mm 4 mps 757 mmHg 27%
    15:00 +37°C° 0 mm 4 mps 757 mmHg 31%
    16:00 +35°C° 0 mm 3 mps 757 mmHg 34%
    17:00 +33°C° 0 mm 3 mps 757 mmHg 38%
    18:00 +31°C° 0 mm 3 mps 757 mmHg 42%
    19:00 +30°C° 0 mm 2 mps 758 mmHg 45%
    20:00 +29°C° 0 mm 2 mps 759 mmHg 49%
    21:00 +28°C° 0 mm 2 mps 759 mmHg 53%
    22:00 +27°C° 0 mm 1 mps 759 mmHg 57%
    23:00 +26°C° 0 mm 1 mps 760 mmHg 61%

    11 April, Saturday

    Time Temperature Precipitation Wind Pressure Humidity
    00:00 +25°C° 0 mm 1 mps 760 mmHg 61%
    01:00 +25°C° 0 mm 1 mps 760 mmHg 62%
    02:00 +25°C° 0 mm 1 mps 760 mmHg 63%
    03:00 +25°C° 0 mm 1 mps 759 mmHg 62%
    04:00 +25°C° 0 mm 1 mps 759 mmHg 62%
    05:00 +24°C° 0 mm 2 mps 759 mmHg 62%
    06:00 +25°C° 0 mm 2 mps 759 mmHg 60%
    07:00 +26°C° 0 mm 2 mps 760 mmHg 58%
    08:00 +26°C° 0 mm 2 mps 760 mmHg 56%
    09:00 +27°C° 0 mm 3 mps 760 mmHg 56%
    10:00 +29°C° 0 mm 3 mps 760 mmHg 56%
    11:00 +30°C° 0 mm 4 mps 760 mmHg 56%
    12:00 +29°C° 0 mm 4 mps 760 mmHg 63%
    13:00 +28°C° 0 mm 4 mps 760 mmHg 70%
    14:00 +26°C° 0 mm 4 mps 760 mmHg 77%
    15:00 +26°C° 0 mm 4 mps 760 mmHg 77%
    16:00 +25°C° 0 mm 4 mps 760 mmHg 77%
    17:00 +23°C° 0 mm 4 mps 760 mmHg 77%
    18:00 +24°C° 0 mm 3 mps 760 mmHg 75%
    19:00 +22°C° 0 mm 3 mps 761 mmHg 73%
    20:00 +22°C° 0 mm 3 mps 761 mmHg 70%
    21:00 +21°C° 0 mm 3 mps 761 mmHg 71%
    22:00 +21°C° 0 mm 3 mps 762 mmHg 72%
    23:00 +21°C° 0 mm 3 mps 762 mmHg 73%
    Show more